Flag for U.S.A. Weather past 2 weeks in Fargo, North Dakota, U.S.A.

Now
65 °F

Scattered clouds.


Feels Like: 65 °F
Forecast: 51 / 75 °F
Wind: 9 mph from Northeast

Location: Hector International Airport

Current Time: Sep 1, 2014 at 8:00:25 PM

Latest Report: Sep 1, 2014 at 6:53 PM


Visibility: 10 mi

Pressure: 29.74 "Hg

Humidity: 70%

Dew point: 55 °F

Location of FargoLocation

Historic Weather in Fargo — Graph

°F

Fargo temperature yesterday

Maximum temperature yesterday: 74 °F (at 3:53 PM)
Minimum temperature yesterday: 60 °F (at 10:53 PM)
Average temperature yesterday: 66 °F

Past Weeks' High & Low Weather Summary

 TemperatureHumidityPressure
High84 °F (Aug 20, 2:53 PM)100% (Aug 22, 2:53 AM)30.22 "Hg (Aug 22, 2:53 AM)
Low50 °F (Aug 26, 4:53 AM)43% (Sep 1, 4:53 PM)29.54 "Hg (Aug 31, 10:53 AM)
Average67 °F80%29.85 "Hg
* Reported Aug 17 6:53 PM — Sep 1 6:53 PM, Fargo, Weather by CustomWeather, © 2014

Note: Actual official high and low records may vary slightly from our data, if they occured in-between our weather recording intervals... More about our weather records

Advertising

Fargo weather history for previous 24 hours

 ConditionsComfort  
Time TempWeatherWind HumidityBarometerVisibility
6:53 PM
Sep 1
65 °FScattered clouds.9 mph70%29.74 "Hg10 mi
5:53 PM69 °FPartly sunny.9 mph61%29.72 "Hg10 mi
4:53 PM78 °FPassing clouds.13 mph43%29.70 "Hg10 mi
3:53 PM77 °FPassing clouds.14 mph44%29.70 "Hg10 mi
2:53 PM76 °FSunny.10 mph48%29.71 "Hg10 mi
1:53 PM74 °FPartly sunny.7 mph53%29.72 "Hg10 mi
12:53 PM73 °FScattered clouds.9 mph51%29.73 "Hg10 mi
11:53 AM72 °FSunny.6 mph59%29.73 "Hg10 mi
10:53 AM68 °FSunny.6 mph68%29.72 "Hg10 mi
9:53 AM65 °FSunny.5 mph76%29.72 "Hg10 mi
8:53 AM60 °FSunny.3 mph86%29.71 "Hg10 mi
7:53 AM55 °FSunny.No wind90%29.72 "Hg10 mi
6:53 AM52 °FClear.6 mph93%29.70 "Hg10 mi
5:53 AM53 °FClear.No wind93%29.69 "Hg10 mi
4:53 AM54 °FClear.5 mph93%29.68 "Hg10 mi
3:53 AM56 °FClear.7 mph93%29.67 "Hg10 mi
2:53 AM57 °FClear.9 mph90%29.65 "Hg10 mi
1:53 AM56 °FClear.6 mph93%29.66 "Hg10 mi
12:53 AM58 °FClear.6 mph90%29.65 "Hg10 mi
11:53 PM
Aug 31
60 °FClear.7 mph90%29.65 "Hg10 mi
10:53 PM60 °FClear.3 mph93%29.64 "Hg10 mi
9:53 PM63 °FClear.5 mph90%29.60 "Hg10 mi
8:53 PM65 °FSunny.6 mph85%29.60 "Hg10 mi
Weather by CustomWeather, © 2014

See weather overviewHow to use our weather pages